• En España
  • Lista de países
  • Para 7 días
  • Temperatura del agua
  • Mapa Satelital
  • El tiempo en el mapa
  • Informadores
  • user-avatar
    Iniciar sesión

    Tiempo cada hora Mahilyow

    Hoy, 17 Octubre, Miércoles

    Tiempo Temperatura Precipitaciones Viento Presión Humedad
    00:00 +12°C° 0 mm 2 mps 755 mmHg 84%
    01:00 +12°C° 0 mm 2 mps 755 mmHg 85%
    02:00 +12°C° 0 mm 1 mps 755 mmHg 86%
    03:00 +11°C° 0 mm 1 mps 755 mmHg 87%
    04:00 +11°C° 0 mm 1 mps 755 mmHg 88%
    05:00 +11°C° 0 mm 1 mps 755 mmHg 88%
    06:00 +11°C° 0 mm 1 mps 755 mmHg 87%
    07:00 +12°C° 0 mm 1 mps 755 mmHg 85%
    08:00 +12°C° 0 mm 1 mps 755 mmHg 83%
    09:00 +14°C° 0 mm 2 mps 755 mmHg 75%
    10:00 +16°C° 0 mm 2 mps 755 mmHg 67%
    11:00 +18°C° 0 mm 2 mps 755 mmHg 59%
    12:00 +19°C° 0 mm 2 mps 755 mmHg 56%
    13:00 +20°C° 0 mm 2 mps 755 mmHg 54%
    14:00 +21°C° 0 mm 2 mps 755 mmHg 51%
    15:00 +19°C° 0 mm 2 mps 755 mmHg 57%
    16:00 +19°C° 0 mm 1 mps 754 mmHg 63%
    17:00 +16°C° 0 mm 1 mps 754 mmHg 69%
    18:00 +15°C° 0 mm 1 mps 754 mmHg 72%
    19:00 +15°C° 0 mm 1 mps 754 mmHg 76%
    20:00 +14°C° 0 mm 1 mps 754 mmHg 79%
    21:00 +14°C° 0 mm 1 mps 754 mmHg 81%
    22:00 +14°C° 0 mm 1 mps 754 mmHg 83%
    23:00 +13°C° 0 mm 1 mps 754 mmHg 85%

    Mañana, 18 Octubre, Jueves

    Tiempo Temperatura Precipitaciones Viento Presión Humedad
    00:00 +13°C° 0 mm 1 mps 754 mmHg 86%
    01:00 +13°C° 0 mm 1 mps 754 mmHg 87%
    02:00 +13°C° 0 mm 1 mps 754 mmHg 88%
    03:00 +12°C° 0 mm 1 mps 754 mmHg 88%
    04:00 +12°C° 0 mm 1 mps 754 mmHg 89%
    05:00 +12°C° 0 mm 1 mps 754 mmHg 90%
    06:00 +12°C° 0 mm 1 mps 754 mmHg 88%
    07:00 +13°C° 0 mm 1 mps 753 mmHg 87%
    08:00 +13°C° 0 mm 1 mps 753 mmHg 85%
    09:00 +15°C° 0 mm 2 mps 753 mmHg 78%
    10:00 +17°C° 0 mm 2 mps 753 mmHg 71%
    11:00 +18°C° 0 mm 2 mps 753 mmHg 63%
    12:00 +19°C° 0 mm 2 mps 753 mmHg 61%
    13:00 +20°C° 0 mm 2 mps 752 mmHg 58%
    14:00 +21°C° 0 mm 2 mps 752 mmHg 55%
    15:00 +19°C° 0 mm 2 mps 752 mmHg 61%
    16:00 +18°C° 0 mm 2 mps 751 mmHg 67%
    17:00 +16°C° 0 mm 2 mps 751 mmHg 72%
    18:00 +16°C° 0 mm 2 mps 751 mmHg 75%
    19:00 +15°C° 0 mm 2 mps 751 mmHg 78%
    20:00 +14°C° 0 mm 2 mps 751 mmHg 81%
    21:00 +14°C° 0 mm 2 mps 751 mmHg 82%
    22:00 +13°C° 0 mm 2 mps 750 mmHg 84%
    23:00 +13°C° 0 mm 2 mps 750 mmHg 85%

    Pasado mañana, 19 Octubre, Viernes

    Tiempo Temperatura Precipitaciones Viento Presión Humedad
    00:00 +13°C° 0 mm 2 mps 750 mmHg 86%
    01:00 +12°C° 0 mm 2 mps 750 mmHg 86%
    02:00 +12°C° 0 mm 1 mps 750 mmHg 87%
    03:00 +11°C° 0 mm 1 mps 750 mmHg 87%
    04:00 +11°C° 0 mm 1 mps 750 mmHg 88%
    05:00 +11°C° 0 mm 1 mps 749 mmHg 88%
    06:00 +11°C° 0 mm 1 mps 749 mmHg 86%
    07:00 +11°C° 0 mm 1 mps 750 mmHg 85%
    08:00 +12°C° 0 mm 1 mps 750 mmHg 83%
    09:00 +13°C° 0 mm 1 mps 750 mmHg 76%
    10:00 +15°C° 0 mm 1 mps 750 mmHg 69%
    11:00 +18°C° 0 mm 1 mps 750 mmHg 62%
    12:00 +18°C° 0 mm 1 mps 750 mmHg 60%
    13:00 +18°C° 0 mm 2 mps 749 mmHg 59%
    14:00 +18°C° 0 mm 2 mps 749 mmHg 57%
    15:00 +17°C° 0 mm 2 mps 749 mmHg 64%
    16:00 +15°C° 0 mm 2 mps 749 mmHg 71%
    17:00 +14°C° 0 mm 2 mps 750 mmHg 77%
    18:00 +13°C° 0 mm 2 mps 750 mmHg 81%
    19:00 +11°C° 0 mm 3 mps 750 mmHg 85%
    20:00 +11°C° 0 mm 3 mps 751 mmHg 89%
    21:00 +10°C° 0 mm 3 mps 751 mmHg 90%
    22:00 +10°C° 0 mm 3 mps 751 mmHg 91%
    23:00 +10°C° 0 mm 3 mps 751 mmHg 92%

    20 Octubre, Sábado

    Tiempo Temperatura Precipitaciones Viento Presión Humedad
    00:00 +9°C° 0 mm 3 mps 751 mmHg 92%
    01:00 +8°C° 0 mm 3 mps 752 mmHg 91%
    02:00 +8°C° 0 mm 3 mps 752 mmHg 90%
    03:00 +7°C° 0 mm 3 mps 752 mmHg 89%
    04:00 +7°C° 0 mm 3 mps 752 mmHg 88%
    05:00 +5°C° 0 mm 3 mps 752 mmHg 86%
    06:00 +5°C° 0 mm 3 mps 753 mmHg 84%
    07:00 +5°C° 0 mm 3 mps 753 mmHg 82%
    08:00 +5°C° 0 mm 3 mps 753 mmHg 79%
    09:00 +7°C° 0 mm 3 mps 753 mmHg 72%
    10:00 +9°C° 0 mm 3 mps 753 mmHg 65%
    11:00 +10°C° 0 mm 3 mps 754 mmHg 58%
    12:00 +11°C° 0 mm 3 mps 754 mmHg 55%
    13:00 +11°C° 0 mm 3 mps 753 mmHg 53%
    14:00 +13°C° 0 mm 2 mps 753 mmHg 50%
    15:00 +10°C° 0 mm 2 mps 753 mmHg 56%
    16:00 +9°C° 0 mm 2 mps 753 mmHg 61%
    17:00 +8°C° 0 mm 2 mps 753 mmHg 66%
    18:00 +7°C° 0 mm 2 mps 753 mmHg 70%
    19:00 +6°C° 0 mm 2 mps 753 mmHg 74%
    20:00 +6°C° 0 mm 2 mps 753 mmHg 77%
    21:00 +5°C° 0 mm 2 mps 753 mmHg 80%
    22:00 +5°C° 0 mm 2 mps 754 mmHg 82%
    23:00 +4°C° 0 mm 2 mps 754 mmHg 85%

    21 Octubre, Domingo

    Tiempo Temperatura Precipitaciones Viento Presión Humedad
    00:00 +4°C° 0 mm 2 mps 754 mmHg 86%
    01:00 +4°C° 0 mm 2 mps 753 mmHg 88%
    02:00 +3°C° 0 mm 2 mps 753 mmHg 90%
    03:00 +3°C° 0 mm 2 mps 753 mmHg 91%
    04:00 +3°C° 0 mm 2 mps 753 mmHg 92%
    05:00 +3°C° 0 mm 2 mps 754 mmHg 92%
    06:00 +3°C° 0 mm 2 mps 754 mmHg 91%
    07:00 +3°C° 0 mm 2 mps 754 mmHg 89%
    08:00 +3°C° 0 mm 2 mps 754 mmHg 88%
    09:00 +5°C° 0 mm 2 mps 754 mmHg 80%
    10:00 +7°C° 0 mm 2 mps 754 mmHg 73%
    11:00 +8°C° 0 mm 2 mps 755 mmHg 65%
    12:00 +9°C° 0 mm 2 mps 755 mmHg 63%
    13:00 +9°C° 0 mm 2 mps 754 mmHg 60%
    14:00 +10°C° 0 mm 2 mps 754 mmHg 57%
    15:00 +8°C° 0 mm 2 mps 754 mmHg 63%
    16:00 +7°C° 0 mm 2 mps 754 mmHg 68%
    17:00 +6°C° 0 mm 2 mps 754 mmHg 74%
    18:00 +5°C° 0 mm 2 mps 755 mmHg 77%
    19:00 +6°C° 0 mm 1 mps 755 mmHg 81%
    20:00 +5°C° 0 mm 1 mps 755 mmHg 85%
    21:00 +5°C° 0 mm 1 mps 755 mmHg 87%
    22:00 +4°C° 0 mm 1 mps 755 mmHg 88%
    23:00 +4°C° 0 mm 1 mps 755 mmHg 90%

    22 Octubre, Lunes

    Tiempo Temperatura Precipitaciones Viento Presión Humedad
    00:00 +3°C° 0 mm 0 mps 755 mmHg 91%
    01:00 +3°C° 0 mm 0 mps 755 mmHg 91%
    02:00 +2°C° 0 mm 0 mps 755 mmHg 91%
    03:00 +2°C° 0 mm 0 mps 755 mmHg 91%
    04:00 +2°C° 0 mm 0 mps 755 mmHg 92%
    05:00 +2°C° 0 mm 0 mps 755 mmHg 92%
    06:00 +2°C° 0 mm 0 mps 754 mmHg 90%
    07:00 +3°C° 0 mm 0 mps 754 mmHg 89%
    08:00 +4°C° 0 mm 1 mps 754 mmHg 88%
    09:00 +6°C° 0 mm 1 mps 754 mmHg 80%
    10:00 +7°C° 0 mm 1 mps 754 mmHg 72%
    11:00 +8°C° 0 mm 2 mps 754 mmHg 64%
    12:00 +9°C° 0 mm 2 mps 753 mmHg 60%
    13:00 +9°C° 0 mm 2 mps 753 mmHg 56%
    14:00 +10°C° 0 mm 3 mps 752 mmHg 53%
    15:00 +9°C° 0 mm 3 mps 752 mmHg 57%
    16:00 +8°C° 0 mm 2 mps 752 mmHg 62%
    17:00 +6°C° 0 mm 2 mps 751 mmHg 67%
    18:00 +6°C° 0 mm 2 mps 751 mmHg 70%
    19:00 +5°C° 0 mm 2 mps 751 mmHg 73%
    20:00 +5°C° 0 mm 2 mps 751 mmHg 77%
    21:00 +5°C° 0 mm 2 mps 751 mmHg 79%
    22:00 +5°C° 0 mm 2 mps 751 mmHg 82%
    23:00 +5°C° 0 mm 2 mps 751 mmHg 84%
    Mostrar más